Content
SEND FEEDBACK

Daily
Averages
Monthly
Summary
United States of America

PUT IN BAY, OHIO


Home > North America > United States > Ohio
Elevation: 561 feet     Latitude: 41 39N     Longitude: 082 48W

WEATHER
 
SELECT A DAY
Number of Records: 124,957;   Date Range: 12/10/00 - 10/29/14
 
SHARE

PRINT THIS DATA

[ ← Previous Day ]
WEATHER ALMANAC - JULY 8, 2013
[ Next Day → ]
[ °C ]   °F
We're sorry. There is no daily almanac available for Put In Bay, Ohio on July 8, 2013.
WEATHER BY HOUR - JULY 8, 2013
[ °C ]   °F
Local TimeTemperatureDewpointHumidityBarometerVisibilityWind DirectionWind SpeedGust SpeedPrecipitationEventsConditions
1:00 AM70.0 °F65.8 °F87 %30.01 inWSW (250°)5.8 mph
2:00 AM68.0 °F66.0 °F93 %30.03 inSE (130°)3.5 mph
2:00 AM68.0 °F66.4 °F95 %30.03 inSE (130°)3.5 mph0.35 in
3:00 AM67.6 °F64.9 °F91 %30.00 inWSW (240°)5.8 mph0.31 in
4:00 AM67.8 °F65.7 °F93 %30.00 inSouth (180°)3.5 mph
5:00 AM69.3 °F66.4 °F91 %30.00 inSW (230°)4.6 mph
6:00 AM69.6 °F66.9 °F91 %30.00 inSW (220°)3.5 mph
7:00 AM70.3 °F67.8 °F92 %30.01 inSSW (200°)4.6 mph
8:00 AM72.0 °F68.0 °F83 %30.02 inSW (230°)6.9 mph
8:00 AM71.8 °F67.8 °F87 %30.02 inSW (230°)6.9 mph
9:00 AM72.1 °F68.4 °F88 %30.02 inSSW (210°)6.9 mph
10:00 AM73.8 °F69.4 °F86 %30.03 inSW (230°)8.1 mph
11:00 AM74.7 °F70.3 °F86 %30.03 inSSW (210°)6.9 mph
12:00 PM77.7 °F69.8 °F76 %30.02 inSSW (210°)10.4 mph
1:00 PM79.2 °F72.0 °F78 %30.01 inSSW (200°)10.4 mph
2:00 PM80.0 °F72.0 °F71 %29.99 inSSW (200°)11.5 mph
2:00 PM79.7 °F72.3 °F78 %29.99 inSSW (200°)11.5 mph
3:00 PM77.5 °F71.4 °F81 %29.98 inSSW (200°)10.4 mph
4:00 PM72.1 °F69.3 °F91 %29.99 inSouth (190°)5.8 mph0.18 in
5:00 PM72.9 °F69.4 °F89 %29.98 inSouth (190°)4.6 mph
6:00 PM69.3 °F67.6 °F95 %30.00 inCalm0.10 in
7:00 PM70.0 °F68.7 °F96 %29.99 inESE (120°)3.5 mph0.03 in
8:00 PM70.0 °F69.0 °F94 %29.99 inSouth (170°)5.8 mph
8:00 PM70.2 °F68.7 °F95 %29.99 inSouth (170°)5.8 mph
9:00 PM71.1 °F69.4 °F95 %29.98 inSSE (160°)9.2 mph
10:00 PM71.2 °F69.6 °F95 %29.99 inSouth (170°)4.6 mph
11:00 PM71.8 °F69.6 °F93 %29.98 inSouth (170°)8.1 mph
Hourly data recorded from CXHA, located miles away from Put In Bay, Ohio







STORIES FROM OUR PARTNERS